Location: ?????? ????????
(44.3581°N, 135.8148°E)
Time: 15:21:57
(UTC+00:00)

Daily predictions for brighter satellites

Satellite Brightness Start Highest point End
(mag) Time Altitude Azimuth Time Altitude Azimuth Time Altitude Azimuth
ATLAS 2AS CENTAUR R/B 4.3 19:02:57 23° NNE 19:04:18 25° NNE 19:09:44 10° E
Atlas Centaur 2 4.5 19:20:44 12° SSE 19:21:14 12° SSE 19:23:27 10° SE
Meteor 1-21 4.4 19:35:57 68° ESE 19:35:57 68° ESE 19:41:06 10° SSE
Cosmos 2181 Rocket 4.4 19:38:35 10° N 19:44:56 64° E 19:51:18 10° SSE
Cosmos 1932 4.4 19:54:11 62° SW 19:55:23 83° NW 20:01:58 10° NNE
ATLAS CENTAUR R/B 3.4 19:57:23 17° ENE 19:57:23 17° ENE 19:58:44 10° E
IRS-1D 4.0 19:52:57 10° NNE 19:58:15 63° ESE 20:03:30 10° S
Cosmos 2082 Rocket 3.6 19:57:06 15° N 20:01:16 34° NE 20:06:25 10° ESE
Cosmos 2278 Rocket 2.7 19:58:13 10° S 20:03:43 58° ESE 20:09:16 10° NNE
USA 307 4.5 20:04:25 24° NNE 20:04:25 24° NNE 20:07:16 10° ENE
Okean 2 4.1 20:08:37 43° SSE 20:08:37 43° SSE 20:11:18 10° SSE
Cosmos 1833 Rocket 3.0 20:09:00 46° SW 20:09:00 46° SW 20:13:30 10° S
Cosmos 2074 Rocket 4.2 20:06:14 10° S 20:12:28 72° E 20:18:45 10° NNE
Meteor 2-10 Rocket 3.7 20:10:59 10° S 20:16:01 69° E 20:21:17 10° NNE
Gbstr 26 Del rocket 4.2 20:14:04 32° SW 20:17:56 86° SSE 20:24:36 10° ENE
COSMO-SKYMED 1 2.7 20:15:30 10° SSE 20:19:34 68° ENE 20:21:45 27° N
Cosmos 1943 Rocket 2.1 20:14:12 10° SSW 20:19:42 86° ESE 20:25:13 10° NNE
BREEZE-M DEB (TANK) 3.7 20:20:22 34° WNW 20:23:49 57° SW 20:27:35 10° SE
SL-23 DEB 3.9 20:27:09 49° NNE 20:27:09 49° NNE 20:29:40 10° NE
Cosmos 1758 3.8 20:24:07 10° S 20:27:45 55° E 20:31:24 10° NNE
Nadezhda 3 Rocket 4.2 20:23:06 10° N 20:29:22 73° E 20:35:40 10° SSE
Cosmos 1743 Rocket 3.8 20:28:06 10° S 20:32:30 70° E 20:36:55 10° NNE
TIMED 4.4 20:34:48 52° W 20:35:14 55° WNW 20:39:26 10° NNE
Lacrosse 5 rocket 3.5 20:37:54 12° N 20:38:07 12° N 20:39:40 10° NNE
BREEZE-M DEB (TANK) 3.6 20:39:52 37° N 20:40:13 39° NNE 20:44:21 10° E
Cosmos 1295 Rocket 4.5 20:37:38 10° SSW 20:43:53 62° W 20:50:08 10° N
USA 32 4.2 20:39:34 10° S 20:44:47 73° E 20:50:01 10° N
Helios 1A Rocket 2.5 20:44:22 10° SSE 20:47:42 73° ENE 20:50:20 16° N
Cosmos 1269 Rocket 3.9 20:43:39 10° SSW 20:48:55 79° WNW 20:54:15 10° NNE
Okean 1-7 4.1 20:48:00 10° N 20:51:59 43° ENE 20:55:57 10° SSE
Cosmos 2154 Rocket 3.9 20:45:54 10° SSW 20:52:10 68° W 20:58:27 10° N
Cosmos 1805 Rocket 3.9 20:51:47 10° SSW 20:55:58 42° WNW 21:00:11 10° N
ATLAS 2AS CENTAUR R/B 2.7 20:50:23 15° NW 20:56:13 81° NE 21:03:00 10° SE
Cosmos 1140 Rocket 3.3 20:52:17 10° SSW 20:57:21 70° WNW 21:02:29 10° NNE
Tiangong 1.1 20:56:59 10° SSE 20:57:59 11° SSE 20:58:58 10° SE
Cosmos 1763 Rocket 4.0 20:53:20 10° NNW 20:58:20 57° ENE 21:03:19 10° SE
GEOS 3 Rocket 3.6 20:54:29 10° SE 20:59:43 88° SW 21:04:16 15° NW
SJ 16-02 3.7 20:57:37 10° SSE 21:01:06 25° E 21:04:36 10° NE
RUBIN 8/PSLV 4.5 20:57:00 10° N 21:01:07 58° WNW 21:05:13 10° SSW
Gblst 52 Del rocket 4.1 20:59:36 22° WNW 21:03:11 81° NNE 21:08:48 10° ESE
Cosmos 1500 Rocket 4.1 21:00:01 10° SW 21:04:01 35° WNW 21:08:03 10° N
Cosmos 44 3.5 21:00:26 17° NW 21:04:40 78° WSW 21:10:02 10° SSE
Cosmos 1023 Rocket 4.5 21:00:26 10° SW 21:05:24 55° WNW 21:10:26 10° NNE
Atlas Centaur 2 4.3 21:04:06 10° SW 21:08:26 22° S 21:13:26 10° SE
Cosmos 1408 Rocket 4.4 21:05:14 10° SW 21:08:56 27° WNW 21:12:39 10° NNW
Cosmos 921 Rocket 3.8 21:07:05 16° WSW 21:09:39 28° WNW 21:13:21 10° N
Cosmos 1461 4.1 21:08:25 10° S 21:12:04 42° ESE 21:15:45 10° NE
Lacrosse 4 Rocket 1.1 21:08:35 10° SSW 21:12:33 82° WNW 21:16:29 10° NNE
Cosmos 540 Rocket 3.8 21:07:31 10° NNW 21:12:36 65° ENE 21:17:38 10° SSE
ARIANE 5 R/B 3.9 21:11:14 10° NNE 21:16:05 43° E 21:20:52 10° S
CENTAUR R/B 2.8 21:14:20 10° SSW 21:19:34 66° ESE 21:26:13 10° NE
Timation 2 Rocket 4.3 21:16:41 10° SW 21:22:56 44° NW 21:29:00 10° NNE
CBERS-1 4.0 21:24:19 10° N 21:29:23 68° WNW 21:34:25 10° SSW
ATLAS CENTAUR R/B 1.7 21:29:11 17° WNW 21:30:46 26° WSW 21:33:18 10° S
CZ-2D R/B 3.3 21:27:43 10° NNE 21:30:48 61° E 21:33:52 10° S
Meteor 2-5 Rocket 4.2 21:26:28 10° N 21:32:21 71° ENE 21:38:15 10° SSE
USA 307 2.8 21:29:08 13° NW 21:32:37 68° NNE 21:36:22 10° ESE
Cosmos 1953 2.4 21:29:45 10° S 21:33:22 70° E 21:37:01 10° NNE
Cosmos 1470 Rocket 3.7 21:31:15 10° S 21:35:32 79° E 21:39:50 10° N
Meteor 1-24 Rocket 4.0 21:30:43 10° N 21:36:47 85° E 21:42:46 10° S
Cosmos 407 Rocket 3.5 21:34:03 10° SSW 21:39:07 60° WNW 21:44:16 10° NNE
SL-8 Rocket 4.0 21:35:05 10° S 21:41:24 79° W 21:47:43 10° N
Cosmos 2082 Rocket 2.7 21:40:08 10° NW 21:45:23 40° WSW 21:50:38 10° S
Cosmos 1862 Rocket 4.0 21:42:50 10° NNW 21:46:52 38° W 21:50:50 10° SSW
COSMOS 2406 3.3 21:41:13 10° NNW 21:46:58 75° WSW 21:52:41 10° SSE
Cosmos 2278 Rocket 3.2 21:43:32 10° WSW 21:48:10 25° NW 21:52:49 10° N
Cosmos 2251 Rocket 3.6 21:44:51 10° SSW 21:50:12 88° ESE 21:55:34 10° NNE
Cosmos 864 Rocket 4.4 21:46:56 10° SSW 21:53:01 72° W 21:59:11 10° N
Cosmos 1484 Rocket 3.9 21:51:36 10° NNW 21:54:00 18° WNW 21:56:24 10° WSW
COSMO-SKYMED 1 4.4 21:54:18 10° WSW 21:55:19 11° W 21:56:20 10° WNW
Cosmos 371 Rocket 3.4 21:51:32 10° SSW 21:56:21 86° ESE 22:01:11 10° NNE
Thor Agena Rocket 3.6 21:52:49 10° N 21:57:50 60° WNW 22:02:54 10° SSW
Cosmos 2084 Rocket 3.4 21:54:31 10° NW 21:58:45 77° SW 22:02:58 10° SSE
YAOGAN 1 3.9 21:55:45 10° NNE 21:59:51 45° E 22:03:55 10° S
SPOT 1/Viking Rocket 3.9 21:54:49 10° NNE 21:59:57 71° ESE 22:05:03 10° S
SAR-Lupe-4 3.7 21:56:30 10° NNE 22:00:06 80° ESE 22:03:40 10° S
Cosmos 1656 Rocket 3.7 21:55:04 10° SW 22:00:41 61° WNW 22:06:18 10° NNE
Cosmos 468 Rocket 4.0 21:55:34 10° NNW 22:00:43 79° WSW 22:05:52 10° SSE
SL-08 R/B 3.9 21:56:18 10° SSE 22:01:08 65° ENE 22:06:00 10° N
SeaSat 1 2.6 21:56:52 10° NNE 22:01:37 52° WNW 22:06:21 10° SW
Meteor 1-16 Rocket 4.4 21:56:53 10° S 22:02:22 76° E 22:07:43 10° NNE
